• In Hungary
  • List of Countries
  • For 7 days
  • Water Temperature
  • Satellite Maps
  • Weather Map
  • News
  • Weather Widgets
  • user-avatar
    Login

    Hourly Weather Sint-Pieters-Leeuw

    Today, 24 February, Saturday

    Time Temperature Precipitation Wind Pressure Humidity
    00:00 -4°C° 0 mm 4 mps 761 mmHg 50%
    01:00 -4°C° 0 mm 4 mps 761 mmHg 48%
    02:00 -5°C° 0 mm 5 mps 761 mmHg 45%
    03:00 -5°C° 0 mm 5 mps 761 mmHg 42%
    04:00 -5°C° 0 mm 5 mps 761 mmHg 40%
    05:00 -5°C° 0 mm 5 mps 761 mmHg 38%
    06:00 -6°C° 0 mm 6 mps 762 mmHg 34%
    07:00 -5°C° 0 mm 6 mps 762 mmHg 31%
    08:00 -4°C° 0 mm 7 mps 762 mmHg 27%
    09:00 -3°C° 0 mm 7 mps 762 mmHg 23%
    10:00 -1°C° 0 mm 8 mps 762 mmHg 25%
    11:00 +1°C° 0 mm 8 mps 762 mmHg 26%
    12:00 +2°C° 0 mm 8 mps 762 mmHg 26%
    13:00 +2°C° 0 mm 8 mps 762 mmHg 29%
    14:00 +2°C° 0 mm 8 mps 762 mmHg 31%
    15:00 +2°C° 0 mm 8 mps 762 mmHg 34%
    16:00 +2°C° 0 mm 7 mps 762 mmHg 39%
    17:00 -1°C° 0 mm 7 mps 763 mmHg 45%
    18:00 -2°C° 0 mm 6 mps 763 mmHg 50%
    19:00 -3°C° 0 mm 6 mps 764 mmHg 51%
    20:00 -3°C° 0 mm 6 mps 764 mmHg 52%
    21:00 -4°C° 0 mm 6 mps 764 mmHg 53%
    22:00 -4°C° 0 mm 6 mps 765 mmHg 52%
    23:00 -5°C° 0 mm 6 mps 765 mmHg 50%

    Tomorrow, 25 February, Sunday

    Time Temperature Precipitation Wind Pressure Humidity
    00:00 -5°C° 0 mm 6 mps 765 mmHg 48%
    01:00 -5°C° 0 mm 6 mps 765 mmHg 47%
    02:00 -6°C° 0 mm 6 mps 765 mmHg 46%
    03:00 -6°C° 0 mm 6 mps 766 mmHg 45%
    04:00 -6°C° 0 mm 6 mps 766 mmHg 44%
    05:00 -6°C° 0 mm 6 mps 766 mmHg 42%
    06:00 -6°C° 0 mm 6 mps 766 mmHg 41%
    07:00 -6°C° 0 mm 6 mps 767 mmHg 37%
    08:00 -6°C° 0 mm 7 mps 767 mmHg 34%
    09:00 -4°C° 0 mm 7 mps 767 mmHg 30%
    10:00 -4°C° 0 mm 7 mps 767 mmHg 27%
    11:00 -3°C° 0 mm 7 mps 767 mmHg 24%
    12:00 -2°C° 0 mm 7 mps 767 mmHg 22%
    13:00 -2°C° 0 mm 7 mps 767 mmHg 23%
    14:00 -2°C° 0 mm 7 mps 766 mmHg 23%
    15:00 -1°C° 0 mm 7 mps 766 mmHg 24%
    16:00 -3°C° 0 mm 6 mps 766 mmHg 28%
    17:00 -4°C° 0 mm 6 mps 767 mmHg 32%
    18:00 -5°C° 0 mm 5 mps 767 mmHg 37%
    19:00 -5°C° 0 mm 5 mps 767 mmHg 39%
    20:00 -5°C° 0 mm 5 mps 767 mmHg 42%
    21:00 -6°C° 0 mm 5 mps 768 mmHg 44%
    22:00 -6°C° 0 mm 5 mps 768 mmHg 47%
    23:00 -6°C° 0 mm 5 mps 768 mmHg 50%

    Day after tomorrow, 26 February, Monday

    Time Temperature Precipitation Wind Pressure Humidity
    00:00 -6°C° 0 mm 5 mps 768 mmHg 53%
    01:00 -6°C° 0 mm 5 mps 768 mmHg 56%
    02:00 -6°C° 0 mm 5 mps 768 mmHg 59%
    03:00 -7°C° 0 mm 5 mps 768 mmHg 63%
    04:00 -7°C° 0 mm 5 mps 768 mmHg 63%
    05:00 -7°C° 0 mm 5 mps 768 mmHg 64%
    06:00 -7°C° 0 mm 5 mps 769 mmHg 65%
    07:00 -6°C° 0 mm 6 mps 769 mmHg 60%
    08:00 -6°C° 0 mm 6 mps 769 mmHg 56%
    09:00 -6°C° 0 mm 7 mps 769 mmHg 51%
    10:00 -6°C° 0 mm 7 mps 769 mmHg 46%
    11:00 -4°C° 0 mm 7 mps 768 mmHg 42%
    12:00 -3°C° 0 mm 7 mps 768 mmHg 37%
    13:00 -3°C° 0 mm 7 mps 768 mmHg 37%
    14:00 -3°C° 0 mm 7 mps 767 mmHg 38%
    15:00 -3°C° 0 mm 7 mps 767 mmHg 38%
    16:00 -4°C° 0 mm 7 mps 767 mmHg 41%
    17:00 -5°C° 0 mm 6 mps 767 mmHg 45%
    18:00 -6°C° 0 mm 5 mps 767 mmHg 48%
    19:00 -6°C° 0 mm 5 mps 767 mmHg 50%
    20:00 -6°C° 0 mm 5 mps 767 mmHg 51%
    21:00 -6°C° 0 mm 5 mps 767 mmHg 53%
    22:00 -7°C° 0 mm 4 mps 767 mmHg 56%
    23:00 -7°C° 0 mm 4 mps 767 mmHg 58%

    27 February, Tuesday

    Time Temperature Precipitation Wind Pressure Humidity
    00:00 -7°C° 0 mm 4 mps 766 mmHg 60%
    01:00 -7°C° 0 mm 4 mps 766 mmHg 62%
    02:00 -7°C° 0 mm 4 mps 766 mmHg 64%
    03:00 -6°C° 0 mm 3 mps 765 mmHg 66%
    04:00 -7°C° 0 mm 4 mps 765 mmHg 66%
    05:00 -8°C° 0 mm 4 mps 765 mmHg 66%
    06:00 -8°C° 0 mm 4 mps 765 mmHg 66%
    07:00 -7°C° 0 mm 4 mps 765 mmHg 63%
    08:00 -6°C° 0 mm 5 mps 764 mmHg 60%
    09:00 -6°C° 0 mm 5 mps 764 mmHg 56%
    10:00 -5°C° 0 mm 5 mps 764 mmHg 48%
    11:00 -4°C° 0 mm 5 mps 763 mmHg 40%
    12:00 -2°C° 0 mm 5 mps 763 mmHg 32%
    13:00 -2°C° 0 mm 5 mps 763 mmHg 32%
    14:00 -2°C° 0 mm 5 mps 762 mmHg 32%
    15:00 -2°C° 0 mm 5 mps 762 mmHg 32%
    16:00 -3°C° 0 mm 4 mps 762 mmHg 37%
    17:00 -4°C° 0 mm 4 mps 762 mmHg 41%
    18:00 -5°C° 0 mm 3 mps 762 mmHg 45%
    19:00 -5°C° 0 mm 3 mps 762 mmHg 47%
    20:00 -6°C° 0 mm 3 mps 762 mmHg 50%
    21:00 -6°C° 0 mm 3 mps 762 mmHg 52%
    22:00 -5°C° 0 mm 2 mps 762 mmHg 54%
    23:00 -5°C° 0 mm 2 mps 762 mmHg 55%

    28 February, Wednesday

    Time Temperature Precipitation Wind Pressure Humidity
    00:00 -5°C° 0 mm 2 mps 762 mmHg 57%
    01:00 -6°C° 0 mm 2 mps 762 mmHg 56%
    02:00 -6°C° 0 mm 2 mps 761 mmHg 54%
    03:00 -6°C° 0 mm 2 mps 761 mmHg 53%
    04:00 -6°C° 0 mm 2 mps 761 mmHg 49%
    05:00 -7°C° 0 mm 2 mps 762 mmHg 46%
    06:00 -8°C° 0 mm 3 mps 762 mmHg 42%
    07:00 -8°C° 0 mm 4 mps 762 mmHg 37%
    08:00 -7°C° 0 mm 5 mps 762 mmHg 33%
    09:00 -8°C° 0 mm 6 mps 762 mmHg 28%
    10:00 -6°C° 0 mm 6 mps 761 mmHg 27%
    11:00 -6°C° 0 mm 6 mps 761 mmHg 26%
    12:00 -6°C° 0 mm 7 mps 761 mmHg 24%
    13:00 -6°C° 0 mm 7 mps 760 mmHg 25%
    14:00 -6°C° 0 mm 7 mps 759 mmHg 26%
    15:00 -4°C° 0 mm 7 mps 759 mmHg 26%
    16:00 -5°C° 0 mm 6 mps 759 mmHg 29%
    17:00 -6°C° 0 mm 6 mps 759 mmHg 31%
    18:00 -8°C° 0 mm 6 mps 759 mmHg 34%
    19:00 -8°C° 0 mm 6 mps 758 mmHg 34%
    20:00 -8°C° 0 mm 7 mps 758 mmHg 34%
    21:00 -8°C° 0 mm 7 mps 758 mmHg 34%
    22:00 -8°C° 0 mm 7 mps 757 mmHg 35%
    23:00 -8°C° 0 mm 7 mps 757 mmHg 37%

    1 March, Thursday

    Time Temperature Precipitation Wind Pressure Humidity
    00:00 -8°C° 0 mm 8 mps 756 mmHg 38%
    01:00 -8°C° 0 mm 8 mps 755 mmHg 38%
    02:00 -8°C° 0 mm 8 mps 755 mmHg 38%
    03:00 -8°C° 0 mm 8 mps 754 mmHg 39%
    04:00 -8°C° 0 mm 8 mps 754 mmHg 38%
    05:00 -9°C° 0 mm 9 mps 753 mmHg 38%
    06:00 -10°C° 0 mm 9 mps 753 mmHg 38%
    07:00 -9°C° 0 mm 9 mps 752 mmHg 36%
    08:00 -8°C° 0 mm 9 mps 752 mmHg 35%
    09:00 -8°C° 0 mm 9 mps 751 mmHg 33%
    10:00 -5°C° 0 mm 9 mps 751 mmHg 31%
    11:00 -4°C° 0 mm 9 mps 750 mmHg 30%
    12:00 -3°C° 0 mm 9 mps 750 mmHg 28%
    13:00 -3°C° 0 mm 9 mps 750 mmHg 29%
    14:00 -1°C° 0 mm 9 mps 749 mmHg 30%
    15:00 -1°C° 0 mm 9 mps 749 mmHg 31%
    16:00 -3°C° 0 mm 9 mps 749 mmHg 32%
    17:00 -2°C° 0 mm 8 mps 749 mmHg 33%
    18:00 -4°C° 0 mm 8 mps 749 mmHg 34%
    19:00 -4°C° 0 mm 8 mps 748 mmHg 36%
    20:00 -5°C° 0 mm 8 mps 748 mmHg 38%
    21:00 -5°C° 0 mm 8 mps 748 mmHg 40%
    22:00 -5°C° 0 mm 8 mps 747 mmHg 42%
    23:00 -5°C° 0 mm 8 mps 747 mmHg 44%
    Show more